Tracking 30986 objects as of 9-Jul-2025
HD Live streaming from Space Station
objects crossing your sky now

USA 12

Track USA 12 now!
USA 12 is classified as:


NORAD ID: 16117
Int'l Code: 1985-092C
Perigee: 36,127.7 km
Apogee: 36,186.3 km
Inclination: 14.5 °
Period: 1,454.7 minutes
Semi major axis: 42527 km
RCS: Unknown
Launch date: October 3, 1985
Source: United States (US)
Launch site: AIR FORCE EASTERN TEST RANGE (AFETR)
Your satellite tracking list
Your tracking list is empty




NASA's NSSDC Master Catalog

Two Line Element Set (TLE):
1 16117U 85092C   25189.33535926 -.00000143  00000-0  00000-0 0  9990
2 16117  14.4650 348.7911 0006896 125.4399 225.3620  0.98989803 22315
Source of the keplerian elements: McCants